Home   Weather   New Haven   Past weeks

Flag for USA Past Weather in New Haven, Connecticut, USA — Yesterday and Last 2 Weeks

50 °F

Passing clouds.

Feels Like: 45 °F
Forecast: 45 / 59 °F
Wind: 14 mph from West

Location: Tweed-New Haven Airport

Current Time: Oct 23, 2016 at 2:22:05 AM

Latest Report: Oct 23, 2016 at 1:53 AM

Visibility: 10 mi

Pressure: 29.61 "Hg

Humidity: 57%

Dew Point: 35 °F

Location of New HavenLocation

Past Weather in New Haven — Graph


New Haven Temperature Yesterday

Maximum temperature yesterday: 66 °F (at 12:53 AM)
Minimum temperature yesterday: 47 °F (at 3:53 PM)
Average temperature yesterday: 53 °F

High & Low Weather Summary for the Past Weeks

High81 °F (Oct 19, 4:53 PM)100% (Oct 8, 8:53 PM)30.48 "Hg (Oct 8, 8:53 PM)
Low38 °F (Oct 11, 12:53 AM)31% (Oct 10, 2:53 PM)29.28 "Hg (Oct 22, 10:53 AM)
Average58 °F77%30.06 "Hg
* Reported Oct 8 12:53 AM — Oct 23 12:53 AM, New Haven, Weather by CustomWeather, © 2016

Note: Actual official high and low records may vary slightly from our data, if they occured in-between our weather recording intervals... More about our weather records


New Haven Weather History for the Previous 24 Hours

Scroll right to see more
Time TempWeatherWind HumidityBarometerVisibility
12:53 AM
Sun, Oct 23
50 °FOvercast.10 mph59%29.59 "Hg10 mi
11:53 PM
Sat, Oct 22
50 °FOvercast.13 mph59%29.58 "Hg10 mi
10:53 PM49 °FPassing clouds.13 mph64%29.57 "Hg10 mi
9:53 PM48 °FPartly cloudy.10 mph68%29.56 "Hg10 mi
8:53 PM48 °FMostly cloudy.10 mph71%29.54 "Hg10 mi
7:53 PM48 °FOvercast.15 mph71%29.51 "Hg10 mi
6:53 PM48 °FMostly cloudy.12 mph77%29.49 "Hg10 mi
5:53 PM47 °FMostly cloudy.9 mph77%29.47 "Hg10 mi
4:53 PM48 °FMostly cloudy.13 mph74%29.44 "Hg10 mi
3:53 PM47 °FLight rain. Mostly cloudy.10 mph80%29.41 "Hg7 mi
2:53 PM48 °FRain. More clouds than sun.10 mph80%29.39 "Hg6 mi
2:00 PM49 °FLight rain. Mostly cloudy.9 mph84%29.35 "Hg10 mi
12:53 PM50 °FOvercast.13 mph77%29.35 "Hg10 mi
11:53 AM51 °FOvercast.12 mph86%29.34 "Hg10 mi
10:53 AM49 °FLight rain. Overcast.22 mph90%29.28 "Hg10 mi
9:53 AM50 °FRain. Fog.13 mph89%29.35 "Hg2 mi
8:53 AM53 °FCloudy.10 mph74%29.34 "Hg10 mi
7:53 AM53 °FOvercast.12 mph77%29.32 "Hg10 mi
6:53 AM54 °FOvercast.14 mph80%29.33 "Hg10 mi
5:53 AM57 °FOvercast.12 mph78%29.33 "Hg10 mi
4:53 AM59 °FOvercast.8 mph81%29.34 "Hg10 mi
3:53 AM62 °FMostly cloudy.8 mph93%29.33 "Hg10 mi
2:53 AM65 °FPartly cloudy.3 mph94%29.34 "Hg10 mi
Weather by CustomWeather, © 2016

See weather overviewHow to use our weather pages